sat.trackr.live / text

‹ back to catalog

STARLINK-4367

NORAD 53229 · 2022-084AS

PAYLOAD ACTIVE UNKNOWN

§ Identity

Operator
Country
US
Launch date
2022-07-22
Launch site
AFWTR
Launch vehicle
Mass (kg)
RCS (m²)

Purposes: comms

External: N2YO · Heavens-Above · Gunter

§ Orbital elements

Epoch: 2026-09-20T04:00:03.000096Z

Period
94.03 min
Inclination
97.2841°
Eccentricity
0.0001466
Mean motion
15.31426384 rev/d
Perigee alt
470.6 km
Apogee alt
472.6 km
Semi-major
6,849.7 km
B*
1.5675e-3
RAAN
318.9398°
Arg perigee
72.8758°
Mean anomaly
76.4545°
Rev number
588

§ Raw data

STARLINK-43671 53229U 22084AS  26263.16670139  .00047742  00000+0  15675-2 0  99982 53229  97.2841 318.9398 0001466  72.8758  76.4545 15.31426384  5888

JSON: /api/v1/satellites/53229 · /tle

For live sub-satellite position, see the globe view (requires WebGL).

§ Visibility from observer

Set your observer location to see the next 7 days of passes ≥ 10°. The values pass through the URL so the page stays shareable.

No JS? Fill the form by hand. The geolocation button needs JavaScript.